Weather History for Monroe, NC

Change the Weather History Date:

Wednesday, February 29, 2012

  Actual Average (KCLT) Record (KCLT)
Temperature  
Mean Temperature 60 °F 47 °F  
Max Temperature 68 °F 58 °F 76 °F (1972)
Min Temperature 51 °F 36 °F 18 °F (1884)
Degree Days  
Heating Degree Days 6 18  
Month to date heating degree days 610  
Since 1 July heating degree days 2717  
Cooling Degree Days 0 0  
Month to date cooling degree days 0  
Year to date cooling degree days 0  
Growing Degree Days 10 (Base 50)    
Moisture  
Dew Point 54 °F    
Average Humidity 81    
Maximum Humidity 96    
Minimum Humidity 59    
Precipitation  
Precipitation 0.00 in 0.13 in 0.68 in (1892)
Month to date precipitation 3.32  
Year to date precipitation 6.73  
Snow  
Snow 0.00 in 0.00 in 2.40 in (1968)
Month to date snowfall 1.2  
Since 1 July snowfall 3.7  
Snow Depth -    
Sea Level Pressure  
Sea Level Pressure 30.09 in    
Wind  
Wind Speed 8 mph (SW)    
Max Wind Speed 26 mph    
Max Gust Speed 36 mph    
Visibility 9 miles    
Events      
T = Trace of Precipitation, MM = Missing Value Source: NWS Daily Summary

Daily Weather History Graph

Daily Weather History Graph

Search for Another Location

Airport:

Trip Planner

Search our weather history database for the weather conditions in past years. The results will help you decide how hot, cold, wet, or windy it might be!

Date:

Astronomy

Feb. 29, 2012 Rise Set
Actual Time 6:52 AM EST 6:17 PM EST
Civil Twilight 6:27 AM EST 6:43 PM EST
Nautical Twilight 5:57 AM EST 7:12 PM EST
Astronomical Twilight 5:28 AM EST 7:41 PM EST
Moon 10:59 AM EST (2/29) 12:46 AM EST (2/29)
Length of Visible Light 12h 16m
Length of Day
11h 25m
Waxing Crescent, 47% of the Moon is Illuminated
Feb 29
Waxing Crescent
Feb 29
First Quarter
Mar 8
Full
Mar 14
Last Quarter
Mar 22
New

Hourly Weather History & Observations

Time (EST) Temp. Dew Point Humidity Pressure Visibility Wind Dir Wind Speed Gust Speed Precip Events Conditions
12:53 AM 54.0 °F 39.9 °F 59% 30.30 in 10.0 mi Variable 4.6 mph - N/A   Overcast
1:53 AM 53.1 °F 41.0 °F 64% 30.28 in 10.0 mi South 3.5 mph - N/A   Overcast
2:53 AM 53.1 °F 44.1 °F 71% 30.26 in 10.0 mi South 3.5 mph - N/A   Overcast
3:53 AM 52.0 °F 48.0 °F 86% 30.24 in 10.0 mi Calm Calm - 0.00 in   Overcast
4:41 AM 51.8 °F 48.2 °F 88% 30.20 in 10.0 mi Calm Calm - 0.00 in   Overcast
4:53 AM 52.0 °F 48.9 °F 89% 30.23 in 10.0 mi Calm Calm - 0.00 in   Overcast
5:09 AM 51.8 °F 48.2 °F 88% 30.21 in 10.0 mi Calm Calm - N/A   Overcast
5:53 AM 53.1 °F 51.1 °F 93% 30.22 in 8.0 mi Variable 4.6 mph - N/A   Overcast
6:53 AM 53.1 °F 51.1 °F 93% 30.21 in 8.0 mi Variable 4.6 mph - N/A   Overcast
7:53 AM 53.1 °F 52.0 °F 96% 30.19 in 2.5 mi South 5.8 mph - N/A   Overcast
8:01 AM 53.6 °F 51.8 °F 94% 30.16 in 4.0 mi Variable 5.8 mph - N/A   Overcast
8:53 AM 55.0 °F 54.0 °F 96% 30.19 in 5.0 mi SW 6.9 mph - N/A   Overcast
9:53 AM 57.0 °F 55.0 °F 93% 30.17 in 6.0 mi SW 9.2 mph - N/A   Overcast
11:45 AM 62.6 °F 57.2 °F 82% 30.11 in 10.0 mi SW 15.0 mph 20.7 mph N/A   Overcast
11:53 AM 63.0 °F 59.0 °F 87% 30.12 in 10.0 mi SW 12.7 mph 21.9 mph N/A   Overcast
12:53 PM 64.9 °F 59.0 °F 81% 30.09 in 10.0 mi SSW 15.0 mph 27.6 mph N/A   Overcast
1:13 PM 64.4 °F 59.0 °F 83% 30.06 in 10.0 mi SW 12.7 mph 25.3 mph N/A   Overcast
1:53 PM 64.9 °F 59.0 °F 81% 30.06 in 10.0 mi WSW 19.6 mph 26.5 mph N/A   Overcast
2:53 PM 66.0 °F 59.0 °F 78% 30.03 in 10.0 mi SW 17.3 mph 25.3 mph N/A   Mostly Cloudy
3:48 PM 68.0 °F 57.2 °F 68% 29.98 in 10.0 mi WSW 25.3 mph 32.2 mph N/A   Mostly Cloudy
3:53 PM 68.0 °F 57.9 °F 70% 30.00 in 10.0 mi WSW 17.3 mph 32.2 mph N/A   Mostly Cloudy
4:06 PM 66.2 °F 57.2 °F 73% 29.98 in 10.0 mi SW 23.0 mph 28.8 mph N/A   Mostly Cloudy
4:50 PM 66.2 °F 57.2 °F 73% 29.97 in 10.0 mi SW 19.6 mph 25.3 mph N/A   Mostly Cloudy
4:53 PM 66.9 °F 57.9 °F 73% 29.99 in 10.0 mi SW 16.1 mph 25.3 mph N/A   Mostly Cloudy
5:53 PM 66.0 °F 57.9 °F 75% 29.96 in 10.0 mi SW 15.0 mph 21.9 mph N/A   Overcast
6:53 PM 66.0 °F 57.9 °F 75% 29.97 in 10.0 mi SSW 12.7 mph 18.4 mph N/A   Overcast
7:53 PM 64.9 °F 59.0 °F 81% 29.94 in 10.0 mi SSW 11.5 mph - N/A   Clear
8:53 PM 66.0 °F 60.1 °F 81% 29.93 in 10.0 mi SSW 13.8 mph 21.9 mph N/A   Scattered Clouds
9:53 PM 66.0 °F 60.1 °F 81% 29.94 in 10.0 mi SW 10.4 mph - N/A   Mostly Cloudy
10:53 PM 66.9 °F 60.1 °F 79% 29.91 in 10.0 mi SW 13.8 mph 24.2 mph N/A   Mostly Cloudy
11:53 PM 66.9 °F 60.1 °F 79% 29.86 in 10.0 mi SW 26.5 mph 35.7 mph N/A   Scattered Clouds